Station Historical Data
Daily Summary for January 28, 2017 Units:  English    Metric   Both
« Previous Day
Next Day »
Daily Weekly Monthly Yearly Custom
  High: Low: Average:
Temperature: 30.3 °F 27.8 °F 29.1 °F
Dew Point: 28.1 °F 21.6 °F 25.3 °F
Humidity: 93% 75% 86%
Wind Speed: 21.0mph 2.0mph 8.2mph
Wind Gust: 25.0mph - -
Wind- - WSW
Pressure: 29.67 in 29.61 in -
Precipitation: 0.00 in    
Historical Graphs
 
 
Tabular Data for January 28, 2017
Time Temperature Dew Point Pressure Wind Wind Speed Wind Gust Humidity Rainfall Rate (Hourly)
00:04 29.6 °F 24.8 °F 29.66 in West 6.0 mph 12.0 mph 82% 0.00 in
00:09 29.5 °F 25.0 °F 29.66 in WNW 8.0 mph 15.0 mph 83% 0.00 in
00:14 29.4 °F 25.2 °F 29.66 in West 8.0 mph 15.0 mph 84% 0.00 in
00:19 29.3 °F 25.1 °F 29.66 in West 6.0 mph 12.0 mph 84% 0.00 in
00:24 29.2 °F 25.0 °F 29.66 in West 3.0 mph 10.0 mph 84% 0.00 in
00:29 29.2 °F 25.0 °F 29.66 in WNW 5.0 mph 12.0 mph 84% 0.00 in
00:34 29.2 °F 25.0 °F 29.65 in West 6.0 mph 10.0 mph 84% 0.00 in
00:44 29.3 °F 25.1 °F 29.65 in WSW 10.0 mph 14.0 mph 84% 0.00 in
00:49 29.3 °F 25.1 °F 29.65 in WSW 6.0 mph 14.0 mph 84% 0.00 in
00:54 29.3 °F 25.1 °F 29.65 in WSW 7.0 mph 13.0 mph 84% 0.00 in
01:04 29.3 °F 25.1 °F 29.65 in West 6.0 mph 14.0 mph 84% 0.00 in
01:09 29.3 °F 25.1 °F 29.65 in West 3.0 mph 10.0 mph 84% 0.00 in
01:14 29.4 °F 24.9 °F 29.65 in West 6.0 mph 8.0 mph 83% 0.00 in
01:19 29.3 °F 24.8 °F 29.65 in WSW 8.0 mph 9.0 mph 83% 0.00 in
01:24 29.3 °F 24.8 °F 29.65 in WSW 7.0 mph 13.0 mph 83% 0.00 in
01:29 29.2 °F 24.7 °F 29.65 in WSW 8.0 mph 15.0 mph 83% 0.00 in
01:34 29.2 °F 24.7 °F 29.65 in West 9.0 mph 17.0 mph 83% 0.00 in
01:39 29.1 °F 24.9 °F 29.66 in West 8.0 mph 17.0 mph 84% 0.00 in
01:44 28.9 °F 24.7 °F 29.66 in WNW 5.0 mph 18.0 mph 84% 0.00 in
01:49 28.8 °F 24.6 °F 29.66 in SW 7.0 mph 17.0 mph 84% 0.00 in
01:54 28.8 °F 24.3 °F 29.66 in West 8.0 mph 17.0 mph 83% 0.00 in
01:59 28.8 °F 24.3 °F 29.66 in WSW 6.0 mph 14.0 mph 83% 0.00 in
02:04 28.8 °F 24.3 °F 29.66 in NW 4.0 mph 14.0 mph 83% 0.00 in
02:09 28.8 °F 24.0 °F 29.66 in SW 6.0 mph 16.0 mph 82% 0.00 in
02:14 28.9 °F 24.1 °F 29.66 in WNW 9.0 mph 14.0 mph 82% 0.00 in
02:19 29.0 °F 23.9 °F 29.66 in WNW 6.0 mph 14.0 mph 81% 0.00 in
02:24 29.0 °F 23.9 °F 29.66 in West 7.0 mph 15.0 mph 81% 0.00 in
02:29 29.0 °F 23.9 °F 29.66 in West 7.0 mph 15.0 mph 81% 0.00 in
02:34 29.0 °F 23.9 °F 29.66 in West 7.0 mph 15.0 mph 81% 0.00 in
02:39 28.9 °F 23.8 °F 29.66 in West 7.0 mph 15.0 mph 81% 0.00 in
02:44 28.8 °F 23.4 °F 29.66 in West 7.0 mph 16.0 mph 80% 0.00 in
02:49 28.8 °F 23.7 °F 29.66 in WNW 7.0 mph 13.0 mph 81% 0.00 in
02:54 28.8 °F 23.4 °F 29.66 in West 8.0 mph 15.0 mph 80% 0.00 in
02:59 28.8 °F 23.4 °F 29.66 in West 13.0 mph 14.0 mph 80% 0.00 in
03:04 28.8 °F 23.4 °F 29.66 in West 5.0 mph 14.0 mph 80% 0.00 in
03:09 28.8 °F 23.4 °F 29.66 in West 5.0 mph 13.0 mph 80% 0.00 in
03:14 28.8 °F 23.4 °F 29.66 in SSW 9.0 mph 13.0 mph 80% 0.00 in
03:19 28.8 °F 23.4 °F 29.66 in West 7.0 mph 14.0 mph 80% 0.00 in
03:24 28.7 °F 23.3 °F 29.65 in West 6.0 mph 14.0 mph 80% 0.00 in
03:29 28.7 °F 23.3 °F 29.66 in West 6.0 mph 14.0 mph 80% 0.00 in
03:34 28.7 °F 23.3 °F 29.66 in West 7.0 mph 16.0 mph 80% 0.00 in
03:39 28.6 °F 23.2 °F 29.66 in West 7.0 mph 16.0 mph 80% 0.00 in
03:44 28.5 °F 22.8 °F 29.66 in West 8.0 mph 16.0 mph 79% 0.00 in
03:49 28.5 °F 23.1 °F 29.66 in WNW 13.0 mph 14.0 mph 80% 0.00 in
03:54 28.4 °F 23.0 °F 29.66 in West 9.0 mph 13.0 mph 80% 0.00 in
03:59 28.4 °F 23.0 °F 29.65 in West 5.0 mph 14.0 mph 80% 0.00 in
04:04 28.4 °F 23.0 °F 29.65 in WSW 3.0 mph 11.0 mph 80% 0.00 in
04:14 28.3 °F 22.9 °F 29.66 in WSW 8.0 mph 12.0 mph 80% 0.00 in
04:19 28.3 °F 22.9 °F 29.66 in West 5.0 mph 12.0 mph 80% 0.00 in
04:24 28.2 °F 22.8 °F 29.65 in West 6.0 mph 11.0 mph 80% 0.00 in
04:29 28.2 °F 22.8 °F 29.65 in West 7.0 mph 13.0 mph 80% 0.00 in
04:34 28.1 °F 22.7 °F 29.65 in West 7.0 mph 15.0 mph 80% 0.00 in
04:39 28.0 °F 22.9 °F 29.65 in WNW 5.0 mph 12.0 mph 81% 0.00 in
04:44 28.0 °F 22.9 °F 29.65 in West 6.0 mph 12.0 mph 81% 0.00 in
04:49 28.0 °F 22.6 °F 29.65 in West 7.0 mph 16.0 mph 80% 0.00 in
04:54 27.9 °F 22.5 °F 29.65 in WNW 9.0 mph 16.0 mph 80% 0.00 in
04:59 27.9 °F 22.8 °F 29.65 in West 7.0 mph 16.0 mph 81% 0.00 in
05:04 27.9 °F 22.8 °F 29.65 in WSW 9.0 mph 15.0 mph 81% 0.00 in
05:09 27.8 °F 22.7 °F 29.65 in West 9.0 mph 14.0 mph 81% 0.00 in
05:14 27.8 °F 22.7 °F 29.65 in West 6.0 mph 13.0 mph 81% 0.00 in
05:19 27.8 °F 23.0 °F 29.65 in WSW 9.0 mph 15.0 mph 82% 0.00 in
05:24 27.9 °F 23.1 °F 29.65 in WNW 4.0 mph 15.0 mph 82% 0.00 in
05:29 27.9 °F 23.1 °F 29.66 in West 6.0 mph 15.0 mph 82% 0.00 in
05:34 27.9 °F 23.1 °F 29.66 in West 6.0 mph 13.0 mph 82% 0.00 in
05:39 27.9 °F 22.8 °F 29.66 in West 6.0 mph 13.0 mph 81% 0.00 in
05:44 27.9 °F 22.8 °F 29.66 in West 8.0 mph 13.0 mph 81% 0.00 in
05:49 27.9 °F 23.1 °F 29.66 in WSW 7.0 mph 15.0 mph 82% 0.00 in
05:59 27.9 °F 23.1 °F 29.66 in West 6.0 mph 13.0 mph 82% 0.00 in
06:04 27.9 °F 23.1 °F 29.66 in West 5.0 mph 13.0 mph 82% 0.00 in
06:09 27.9 °F 23.4 °F 29.66 in West 6.0 mph 12.0 mph 83% 0.00 in
06:24 27.9 °F 23.7 °F 29.66 in West 2.0 mph 10.0 mph 84% 0.00 in
06:29 27.8 °F 23.6 °F 29.66 in West 5.0 mph 11.0 mph 84% 0.00 in
06:34 27.8 °F 23.6 °F 29.66 in West 5.0 mph 11.0 mph 84% 0.00 in
06:39 27.8 °F 23.6 °F 29.66 in West 5.0 mph 12.0 mph 84% 0.00 in
06:49 27.9 °F 23.4 °F 29.66 in WSW 8.0 mph 10.0 mph 83% 0.00 in
06:54 28.0 °F 23.5 °F 29.66 in West 5.0 mph 12.0 mph 83% 0.00 in
06:59 28.0 °F 23.5 °F 29.66 in West 5.0 mph 12.0 mph 83% 0.00 in
07:04 28.0 °F 23.2 °F 29.66 in West 4.0 mph 11.0 mph 82% 0.00 in
07:09 28.1 °F 23.3 °F 29.66 in West 4.0 mph 10.0 mph 82% 0.00 in
07:19 28.3 °F 22.0 °F 29.66 in West 5.0 mph 11.0 mph 77% 0.00 in
07:24 28.5 °F 21.9 °F 29.66 in West 11.0 mph 12.0 mph 76% 0.00 in
07:29 28.6 °F 21.7 °F 29.66 in West 7.0 mph 12.0 mph 75% 0.00 in
07:34 28.5 °F 21.6 °F 29.66 in West 6.0 mph 13.0 mph 75% 0.00 in
07:39 28.6 °F 21.7 °F 29.66 in West 9.0 mph 10.0 mph 75% 0.00 in
07:44 28.6 °F 21.7 °F 29.66 in WNW 3.0 mph 14.0 mph 75% 0.00 in
07:49 28.6 °F 22.0 °F 29.66 in WSW 9.0 mph 16.0 mph 76% 0.00 in
07:59 28.6 °F 22.3 °F 29.67 in WSW 6.0 mph 14.0 mph 77% 0.00 in
08:04 28.7 °F 22.4 °F 29.66 in West 7.0 mph 14.0 mph 77% 0.00 in
08:09 28.7 °F 22.4 °F 29.66 in West 6.0 mph 13.0 mph 77% 0.00 in
08:14 28.7 °F 22.4 °F 29.66 in West 5.0 mph 12.0 mph 77% 0.00 in
08:19 28.8 °F 22.5 °F 29.66 in West 5.0 mph 12.0 mph 77% 0.00 in
08:24 28.9 °F 22.6 °F 29.66 in West 6.0 mph 11.0 mph 77% 0.00 in
08:29 28.9 °F 22.6 °F 29.66 in West 5.0 mph 15.0 mph 77% 0.00 in
08:34 28.9 °F 22.9 °F 29.66 in WSW 5.0 mph 15.0 mph 78% 0.00 in
08:39 28.9 °F 23.5 °F 29.66 in West 4.0 mph 11.0 mph 80% 0.00 in
08:44 28.8 °F 23.7 °F 29.66 in WSW 4.0 mph 10.0 mph 81% 0.00 in
08:54 28.5 °F 24.3 °F 29.66 in West 3.0 mph 12.0 mph 84% 0.00 in
08:59 28.5 °F 24.8 °F 29.66 in WSW 7.0 mph 13.0 mph 86% 0.00 in
09:04 28.5 °F 25.1 °F 29.66 in SW 7.0 mph 12.0 mph 87% 0.00 in
09:09 28.4 °F 25.3 °F 29.66 in WSW 7.0 mph 15.0 mph 88% 0.00 in
09:19 28.4 °F 25.6 °F 29.66 in WSW 7.0 mph 14.0 mph 89% 0.00 in
09:24 28.5 °F 25.7 °F 29.66 in WSW 6.0 mph 14.0 mph 89% 0.00 in
09:34 28.7 °F 25.9 °F 29.67 in North 9.0 mph 15.0 mph 89% 0.00 in
09:39 28.6 °F 25.8 °F 29.67 in SW 13.0 mph 21.0 mph 89% 0.00 in
09:44 28.7 °F 25.6 °F 29.66 in West 4.0 mph 18.0 mph 88% 0.00 in
09:49 28.7 °F 25.6 °F 29.67 in West 8.0 mph 18.0 mph 88% 0.00 in
09:54 28.8 °F 25.7 °F 29.67 in WSW 2.0 mph 12.0 mph 88% 0.00 in
09:59 28.9 °F 26.1 °F 29.67 in West 5.0 mph 12.0 mph 89% 0.00 in
10:04 28.8 °F 26.0 °F 29.67 in WSW 12.0 mph 17.0 mph 89% 0.00 in
10:09 28.9 °F 26.1 °F 29.67 in WSW 10.0 mph 18.0 mph 89% 0.00 in
10:14 29.2 °F 26.1 °F 29.67 in WSW 9.0 mph 18.0 mph 88% 0.00 in
10:19 29.5 °F 26.1 °F 29.67 in West 6.0 mph 13.0 mph 87% 0.00 in
10:24 29.3 °F 25.6 °F 29.67 in WSW 8.0 mph 18.0 mph 86% 0.00 in
10:29 29.1 °F 25.7 °F 29.67 in WSW 9.0 mph 18.0 mph 87% 0.00 in
10:34 29.0 °F 25.9 °F 29.67 in WSW 9.0 mph 15.0 mph 88% 0.00 in
10:39 28.8 °F 26.0 °F 29.67 in SW 9.0 mph 18.0 mph 89% 0.00 in
10:44 28.7 °F 26.1 °F 29.67 in WSW 6.0 mph 16.0 mph 90% 0.00 in
10:49 28.6 °F 26.0 °F 29.67 in SW 8.0 mph 17.0 mph 90% 0.00 in
10:59 28.5 °F 26.2 °F 29.67 in WSW 6.0 mph 21.0 mph 91% 0.00 in
11:04 28.7 °F 26.4 °F 29.67 in WSW 5.0 mph 14.0 mph 91% 0.00 in
11:09 28.9 °F 26.6 °F 29.67 in West 6.0 mph 16.0 mph 91% 0.00 in
11:14 29.2 °F 26.6 °F 29.67 in WSW 8.0 mph 16.0 mph 90% 0.00 in
11:19 29.5 °F 26.7 °F 29.66 in WSW 8.0 mph 16.0 mph 89% 0.00 in
11:24 29.5 °F 26.4 °F 29.66 in WSW 8.0 mph 17.0 mph 88% 0.00 in
11:29 29.3 °F 26.5 °F 29.66 in SW 9.0 mph 21.0 mph 89% 0.00 in
11:34 29.0 °F 25.9 °F 29.66 in WSW 11.0 mph 23.0 mph 88% 0.00 in
11:39 28.9 °F 25.8 °F 29.66 in SW 9.0 mph 22.0 mph 88% 0.00 in
11:44 28.7 °F 25.6 °F 29.66 in WSW 9.0 mph 20.0 mph 88% 0.00 in
11:49 28.7 °F 25.3 °F 29.66 in West 6.0 mph 19.0 mph 87% 0.00 in
11:54 28.8 °F 25.4 °F 29.65 in WSW 15.0 mph 15.0 mph 87% 0.00 in
11:59 28.8 °F 25.1 °F 29.65 in SW 5.0 mph 19.0 mph 86% 0.00 in
12:04 28.8 °F 25.1 °F 29.65 in SW 12.0 mph 16.0 mph 86% 0.00 in
12:09 28.8 °F 25.1 °F 29.65 in SW 9.0 mph 19.0 mph 86% 0.00 in
12:14 28.8 °F 25.1 °F 29.65 in SW 9.0 mph 20.0 mph 86% 0.00 in
12:19 28.7 °F 25.0 °F 29.65 in SW 10.0 mph 20.0 mph 86% 0.00 in
12:24 28.8 °F 25.1 °F 29.64 in SW 11.0 mph 17.0 mph 86% 0.00 in
12:29 28.9 °F 25.2 °F 29.64 in SW 11.0 mph 21.0 mph 86% 0.00 in
12:34 29.0 °F 25.3 °F 29.64 in SW 11.0 mph 21.0 mph 86% 0.00 in
12:39 28.9 °F 25.2 °F 29.64 in SW 7.0 mph 18.0 mph 86% 0.00 in
12:44 29.0 °F 25.3 °F 29.64 in SW 9.0 mph 18.0 mph 86% 0.00 in
12:49 29.0 °F 25.3 °F 29.63 in SW 12.0 mph 19.0 mph 86% 0.00 in
12:54 29.0 °F 25.3 °F 29.63 in WSW 11.0 mph 15.0 mph 86% 0.00 in
12:59 29.0 °F 25.3 °F 29.63 in WSW 13.0 mph 14.0 mph 86% 0.00 in
13:09 29.0 °F 25.6 °F 29.62 in SW 11.0 mph 20.0 mph 87% 0.00 in
13:14 29.1 °F 25.7 °F 29.62 in SW 10.0 mph 18.0 mph 87% 0.00 in
13:19 29.2 °F 25.8 °F 29.62 in SW 9.0 mph 19.0 mph 87% 0.00 in
13:24 29.3 °F 25.6 °F 29.62 in SW 9.0 mph 19.0 mph 86% 0.00 in
13:29 29.3 °F 25.6 °F 29.62 in SW 9.0 mph 19.0 mph 86% 0.00 in
13:34 29.4 °F 25.7 °F 29.62 in SW 10.0 mph 20.0 mph 86% 0.00 in
13:39 29.4 °F 26.0 °F 29.62 in WSW 12.0 mph 18.0 mph 87% 0.00 in
13:44 29.4 °F 25.7 °F 29.62 in SW 13.0 mph 22.0 mph 86% 0.00 in
13:49 29.3 °F 25.9 °F 29.62 in WSW 11.0 mph 22.0 mph 87% 0.00 in
13:59 29.2 °F 26.1 °F 29.62 in SW 17.0 mph 19.0 mph 88% 0.00 in
14:04 29.2 °F 26.1 °F 29.62 in SW 21.0 mph 21.0 mph 88% 0.00 in
14:14 29.1 °F 26.3 °F 29.62 in West 9.0 mph 23.0 mph 89% 0.00 in
14:19 29.2 °F 26.4 °F 29.61 in SW 10.0 mph 23.0 mph 89% 0.00 in
14:24 29.2 °F 26.4 °F 29.61 in SW 9.0 mph 20.0 mph 89% 0.00 in
14:29 29.1 °F 26.5 °F 29.61 in SW 9.0 mph 21.0 mph 90% 0.00 in
14:34 29.1 °F 26.5 °F 29.61 in SW 10.0 mph 21.0 mph 90% 0.00 in
14:39 29.1 °F 26.5 °F 29.61 in SW 10.0 mph 21.0 mph 90% 0.00 in
14:44 29.2 °F 26.6 °F 29.61 in SW 9.0 mph 21.0 mph 90% 0.00 in
14:49 29.2 °F 26.6 °F 29.61 in West 7.0 mph 19.0 mph 90% 0.00 in
14:54 29.3 °F 26.7 °F 29.62 in SW 14.0 mph 16.0 mph 90% 0.00 in
14:59 29.3 °F 26.7 °F 29.61 in WSW 3.0 mph 15.0 mph 90% 0.00 in
15:04 29.3 °F 26.7 °F 29.62 in WSW 8.0 mph 18.0 mph 90% 0.00 in
15:09 29.3 °F 26.7 °F 29.62 in SW 7.0 mph 16.0 mph 90% 0.00 in
15:14 29.3 °F 26.7 °F 29.62 in SW 17.0 mph 18.0 mph 90% 0.00 in
15:19 29.2 °F 26.9 °F 29.62 in WSW 5.0 mph 20.0 mph 91% 0.00 in
15:24 29.1 °F 26.8 °F 29.62 in WSW 11.0 mph 20.0 mph 91% 0.00 in
15:29 29.1 °F 26.8 °F 29.62 in WSW 8.0 mph 20.0 mph 91% 0.00 in
15:34 29.2 °F 26.9 °F 29.62 in WSW 8.0 mph 13.0 mph 91% 0.00 in
15:44 29.3 °F 27.0 °F 29.62 in WSW 8.0 mph 18.0 mph 91% 0.00 in
15:49 29.4 °F 26.8 °F 29.62 in West 14.0 mph 17.0 mph 90% 0.00 in
15:54 29.5 °F 26.7 °F 29.62 in WSW 10.0 mph 17.0 mph 89% 0.00 in
15:59 29.6 °F 26.8 °F 29.62 in WSW 10.0 mph 19.0 mph 89% 0.00 in
16:04 29.6 °F 26.8 °F 29.62 in SSW 6.0 mph 16.0 mph 89% 0.00 in
16:09 29.7 °F 26.9 °F 29.62 in West 9.0 mph 18.0 mph 89% 0.00 in
16:14 29.7 °F 26.9 °F 29.62 in WSW 5.0 mph 14.0 mph 89% 0.00 in
16:19 29.6 °F 26.8 °F 29.62 in WSW 13.0 mph 19.0 mph 89% 0.00 in
16:24 29.7 °F 26.6 °F 29.62 in West 8.0 mph 22.0 mph 88% 0.00 in
16:29 29.8 °F 26.7 °F 29.62 in WSW 10.0 mph 22.0 mph 88% 0.00 in
16:34 29.7 °F 26.6 °F 29.62 in WSW 9.0 mph 18.0 mph 88% 0.00 in
16:39 29.7 °F 26.6 °F 29.62 in WSW 9.0 mph 21.0 mph 88% 0.00 in
16:44 29.7 °F 26.3 °F 29.62 in WSW 11.0 mph 21.0 mph 87% 0.00 in
16:49 29.8 °F 26.4 °F 29.62 in WSW 10.0 mph 18.0 mph 87% 0.00 in
16:54 29.8 °F 26.1 °F 29.62 in West 7.0 mph 18.0 mph 86% 0.00 in
17:04 29.8 °F 25.8 °F 29.62 in West 9.0 mph 19.0 mph 85% 0.00 in
17:09 29.7 °F 25.7 °F 29.62 in WSW 8.0 mph 15.0 mph 85% 0.00 in
17:14 29.8 °F 26.1 °F 29.62 in South 5.0 mph 13.0 mph 86% 0.00 in
17:19 29.8 °F 26.1 °F 29.62 in WSW 11.0 mph 17.0 mph 86% 0.00 in
17:24 29.8 °F 26.1 °F 29.63 in WSW 4.0 mph 19.0 mph 86% 0.00 in
17:29 29.9 °F 25.9 °F 29.62 in West 9.0 mph 19.0 mph 85% 0.00 in
17:34 29.9 °F 25.9 °F 29.62 in West 9.0 mph 19.0 mph 85% 0.00 in
17:39 29.9 °F 25.7 °F 29.62 in SW 8.0 mph 17.0 mph 84% 0.00 in
17:44 30.0 °F 25.8 °F 29.62 in West 10.0 mph 10.0 mph 84% 0.00 in
17:49 30.0 °F 25.8 °F 29.62 in West 5.0 mph 15.0 mph 84% 0.00 in
17:54 30.1 °F 25.8 °F 29.62 in West 8.0 mph 14.0 mph 84% 0.00 in
17:59 30.1 °F 25.8 °F 29.62 in WSW 14.0 mph 19.0 mph 84% 0.00 in
18:04 30.1 °F 25.8 °F 29.62 in WSW 8.0 mph 19.0 mph 84% 0.00 in
18:09 30.1 °F 25.8 °F 29.62 in WNW 9.0 mph 15.0 mph 84% 0.00 in
18:14 30.2 °F 26.2 °F 29.62 in WSW 9.0 mph 20.0 mph 85% 0.00 in
18:19 30.1 °F 26.1 °F 29.62 in WSW 9.0 mph 20.0 mph 85% 0.00 in
18:24 30.2 °F 26.2 °F 29.62 in WSW 9.0 mph 19.0 mph 85% 0.00 in
18:29 30.3 °F 26.0 °F 29.63 in West 8.0 mph 20.0 mph 84% 0.00 in
18:34 30.3 °F 26.0 °F 29.63 in WSW 18.0 mph 18.0 mph 84% 0.00 in
18:39 30.3 °F 26.0 °F 29.63 in WNW 4.0 mph 18.0 mph 84% 0.00 in
18:44 30.2 °F 26.2 °F 29.63 in West 10.0 mph 14.0 mph 85% 0.00 in
18:49 30.2 °F 26.2 °F 29.63 in WSW 3.0 mph 10.0 mph 85% 0.00 in
18:54 30.2 °F 26.2 °F 29.63 in West 11.0 mph 11.0 mph 85% 0.00 in
18:59 30.1 °F 26.1 °F 29.63 in West 7.0 mph 11.0 mph 85% 0.00 in
19:04 30.1 °F 25.8 °F 29.63 in WSW 14.0 mph 14.0 mph 84% 0.00 in
19:09 30.1 °F 26.1 °F 29.64 in WSW 7.0 mph 17.0 mph 85% 0.00 in
19:14 30.1 °F 25.8 °F 29.64 in WSW 9.0 mph 17.0 mph 84% 0.00 in
19:19 30.2 °F 25.9 °F 29.64 in WSW 10.0 mph 22.0 mph 84% 0.00 in
19:29 30.1 °F 26.1 °F 29.64 in SW 5.0 mph 20.0 mph 85% 0.00 in
19:34 30.1 °F 26.1 °F 29.64 in West 11.0 mph 17.0 mph 85% 0.00 in
19:39 29.9 °F 26.2 °F 29.64 in WSW 10.0 mph 22.0 mph 86% 0.00 in
19:44 29.7 °F 26.6 °F 29.64 in WSW 11.0 mph 25.0 mph 88% 0.00 in
19:49 29.3 °F 26.5 °F 29.64 in WSW 10.0 mph 20.0 mph 89% 0.00 in
19:54 29.1 °F 26.5 °F 29.64 in SW 16.0 mph 22.0 mph 90% 0.00 in
19:59 28.8 °F 26.5 °F 29.64 in WSW 4.0 mph 18.0 mph 91% 0.00 in
20:04 28.8 °F 26.5 °F 29.64 in West 5.0 mph 13.0 mph 91% 0.00 in
20:09 28.8 °F 26.8 °F 29.64 in SW 8.0 mph 22.0 mph 92% 0.00 in
20:24 28.9 °F 26.9 °F 29.64 in WSW 7.0 mph 15.0 mph 92% 0.00 in
20:29 29.0 °F 27.0 °F 29.64 in SW 13.0 mph 21.0 mph 92% 0.00 in
20:34 29.0 °F 27.0 °F 29.64 in WSW 15.0 mph 18.0 mph 92% 0.00 in
20:39 28.9 °F 26.9 °F 29.64 in WSW 13.0 mph 20.0 mph 92% 0.00 in
20:44 28.8 °F 26.8 °F 29.64 in WSW 10.0 mph 21.0 mph 92% 0.00 in
20:49 28.8 °F 26.8 °F 29.64 in WSW 10.0 mph 21.0 mph 92% 0.00 in
20:54 28.9 °F 26.9 °F 29.64 in WSW 12.0 mph 21.0 mph 92% 0.00 in
20:59 29.0 °F 27.0 °F 29.63 in WSW 11.0 mph 21.0 mph 92% 0.00 in
21:04 29.0 °F 27.0 °F 29.64 in SW 10.0 mph 24.0 mph 92% 0.00 in
21:09 28.9 °F 26.9 °F 29.64 in WSW 8.0 mph 20.0 mph 92% 0.00 in
21:14 29.0 °F 27.0 °F 29.64 in West 8.0 mph 21.0 mph 92% 0.00 in
21:19 29.0 °F 27.2 °F 29.64 in WSW 11.0 mph 24.0 mph 93% 0.00 in
21:24 29.2 °F 27.4 °F 29.64 in WSW 11.0 mph 24.0 mph 93% 0.00 in
21:29 29.2 °F 27.4 °F 29.64 in WSW 10.0 mph 18.0 mph 93% 0.00 in
21:34 29.2 °F 27.4 °F 29.63 in WSW 15.0 mph 21.0 mph 93% 0.00 in
21:39 29.3 °F 27.5 °F 29.63 in West 13.0 mph 18.0 mph 93% 0.00 in
21:44 29.4 °F 27.6 °F 29.64 in WSW 12.0 mph 17.0 mph 93% 0.00 in
21:49 29.4 °F 27.6 °F 29.63 in WSW 11.0 mph 23.0 mph 93% 0.00 in
21:54 29.4 °F 27.6 °F 29.63 in WSW 11.0 mph 23.0 mph 93% 0.00 in
21:59 29.5 °F 27.7 °F 29.63 in WSW 11.0 mph 19.0 mph 93% 0.00 in
22:04 29.6 °F 27.8 °F 29.63 in South 12.0 mph 17.0 mph 93% 0.00 in
22:14 29.6 °F 27.8 °F 29.63 in South 5.0 mph 15.0 mph 93% 0.00 in
22:19 29.7 °F 27.9 °F 29.63 in SSW 9.0 mph 22.0 mph 93% 0.00 in
22:24 29.9 °F 28.1 °F 29.62 in WSW 10.0 mph 23.0 mph 93% 0.00 in
22:29 30.0 °F 28.0 °F 29.62 in WSW 9.0 mph 23.0 mph 92% 0.00 in
22:34 30.0 °F 28.0 °F 29.63 in West 8.0 mph 20.0 mph 92% 0.00 in
22:39 30.0 °F 28.0 °F 29.63 in West 10.0 mph 19.0 mph 92% 0.00 in
22:44 29.9 °F 28.1 °F 29.63 in SW 15.0 mph 18.0 mph 93% 0.00 in
22:49 29.9 °F 28.1 °F 29.62 in West 5.0 mph 15.0 mph 93% 0.00 in
22:54 29.8 °F 28.0 °F 29.63 in WSW 9.0 mph 15.0 mph 93% 0.00 in
22:59 29.7 °F 27.9 °F 29.62 in WSW 9.0 mph 20.0 mph 93% 0.00 in
23:04 29.5 °F 27.7 °F 29.62 in WSW 10.0 mph 20.0 mph 93% 0.00 in
23:09 29.4 °F 27.6 °F 29.62 in West 9.0 mph 17.0 mph 93% 0.00 in
23:14 29.3 °F 27.5 °F 29.62 in WSW 9.0 mph 17.0 mph 93% 0.00 in
23:19 29.2 °F 27.4 °F 29.62 in West 8.0 mph 12.0 mph 93% 0.00 in
23:24 29.2 °F 27.4 °F 29.62 in WSW 7.0 mph 16.0 mph 93% 0.00 in
23:29 29.1 °F 27.3 °F 29.62 in SW 6.0 mph 14.0 mph 93% 0.00 in
23:34 29.0 °F 27.2 °F 29.62 in West 8.0 mph 13.0 mph 93% 0.00 in
23:39 28.9 °F 27.1 °F 29.62 in WNW 5.0 mph 10.0 mph 93% 0.00 in
23:49 28.8 °F 27.0 °F 29.62 in WNW 3.0 mph 12.0 mph 93% 0.00 in
23:54 28.7 °F 26.9 °F 29.62 in West 5.0 mph 12.0 mph 93% 0.00 in
23:59 28.7 °F 26.9 °F 29.62 in West 9.0 mph 11.0 mph 93% 0.00 in
Buffalo, New York, USA
Compliments of Weather Underground - 2.5 mb